Погода в Фанранг-Тхаптям

Вьетнам     11°33′50″N   109°00′38″E
темп.,
°C
ветер,
м/с
пор.,
м/с
влажн.,
%
обл.,
%
осадки,
мм/ч
давл.,
гПа
погр.,
м
13 апреля, вт
вт1301:00+25ссз228698 0.1 1012113
04:00+25ссз228899 0.1 1012111
07:00+26ссз237799 0.2 1013335
10:00+30в54595 0.0 10131060
13:00+31в76585 0.0 1011882
16:00+29в65667 0.0 1009842
19:00+26в347925 0.0 1011287
22:00+26св1281100 0.0 1013220
14 апреля, ср
ср1401:00+25с2284100 0.1 101195
04:00+25с228499 0.0 101179
07:00+27с117065 0.0 1013231
10:00+30вюв435735 0.0 10121101
13:00+30вюв7559100 0.0 1010781
16:00+29вюв446499 0.1 1009735
19:00+26ююв237997 0.6 1010227
22:00+26юз118017 0.0 1011174
15 апреля, чт
чт1501:00+25з1185100 0.0 1010110
04:00+24сз118747 0.0 101095
07:00+26сз1180100 0.0 1012238
10:00+30юв436225 0.0 10121036
13:00+30юв75625 0.0 1009802
16:00+29ююв556919 0.1 1008803
19:00+26ююв237919 0.2 1010281
22:00+26ю118324 0.2 1011184
16 апреля, пт
пт1601:00
04:00+26вюв1183100 0.1 1010173
07:00+26в118299 0.3 1012305
10:00+30вюв336032 0.1 10121046
13:00+29вюв656084 0.1 1010871
16:00+28вюв546312 0.0 1009776
19:00+26в3471100 0.0 1011249
22:00+25ссв23746 0.0 1013176
17 апреля, сб
сб1701:00+23ссз237958 0.0 1012126
04:00+23с228330 0.0 101296
07:00+25ссз237222 0.0 1014297
10:00+31в444590 0.0 10141152
13:00+31в874791 0.0 10111209
16:00+29всв885984 0.0 1010888
19:00+26св4680100 0.0 1013334
22:00+25с348399 0.0 1014260